Tracking 30703 objects as of 13-Jun-2025
HD Live streaming from Space Station
objects crossing your sky now

STARLINK-30462

Track STARLINK-30462 now!
10-day predictions
STARLINK-30462 is classified as:


NORAD ID: 57902
Int'l Code: 2023-146M
Perigee: 565.3 km
Apogee: 567.1 km
Inclination: 43.0 °
Period: 95.8 minutes
Semi major axis: 6937 km
RCS: Unknown
Launch date: September 20, 2023
Source: United States (US)
Launch site: AIR FORCE EASTERN TEST RANGE (AFETR)
Your satellite tracking list
Your tracking list is empty




NASA's NSSDC Master Catalog

Two Line Element Set (TLE):
1 57902U 23146M   25163.76236675  .00000963  00000-0  86357-4 0  9999
2 57902  43.0060 339.9302 0001296 270.5353  89.5341 15.02534860 96425
Source of the keplerian elements: AFSPC